TimeAKDT,TemperatureF,Dew PointF,Humidity,Sea Level PressureIn,VisibilityMPH,Wind Direction,Wind SpeedMPH,Gust SpeedMPH,PrecipitationIn,Events,Conditions,WindDirDegrees,DateUTC
12:16 AM,-16.6,-20.2,84,30.05,10.0,Calm,Calm,-,N/A,,Clear,0,2013-03-27 08:16:00
12:36 AM,-16.6,-20.2,84,30.06,10.0,Calm,Calm,-,N/A,,Clear,0,2013-03-27 08:36:00
12:56 AM,-18.4,-22.0,84,30.06,10.0,Calm,Calm,-,N/A,,Clear,0,2013-03-27 08:56:00
1:16 AM,-18.4,-23.8,76,30.07,10.0,Calm,Calm,-,N/A,,Clear,0,2013-03-27 09:16:00
1:36 AM,-20.2,-23.8,83,30.07,10.0,Calm,Calm,-,N/A,,Clear,0,2013-03-27 09:36:00
1:56 AM,-20.2,-23.8,83,30.07,10.0,Calm,Calm,-,N/A,,Clear,0,2013-03-27 09:56:00
2:16 AM,-22.0,-25.6,83,30.07,10.0,Calm,Calm,-,N/A,,Clear,0,2013-03-27 10:16:00
2:36 AM,-23.8,-27.4,83,30.07,10.0,Calm,Calm,-,N/A,,Clear,0,2013-03-27 10:36:00
2:56 AM,-23.8,-27.4,83,30.07,10.0,Calm,Calm,-,N/A,,Clear,0,2013-03-27 10:56:00
3:16 AM,-25.6,-29.2,83,30.08,9.0,Calm,Calm,-,N/A,,Clear,0,2013-03-27 11:16:00
3:36 AM,-25.6,-29.2,83,30.07,10.0,Calm,Calm,-,N/A,,Clear,0,2013-03-27 11:36:00
3:56 AM,-23.8,-29.2,76,30.08,10.0,Calm,Calm,-,N/A,,Scattered Clouds,0,2013-03-27 11:56:00
4:16 AM,-23.8,-29.2,76,30.08,10.0,Calm,Calm,-,N/A,,Scattered Clouds,0,2013-03-27 12:16:00
4:36 AM,-25.6,-29.2,83,30.08,10.0,Calm,Calm,-,N/A,,Partly Cloudy,0,2013-03-27 12:36:00
4:56 AM,-25.6,-29.2,83,30.08,10.0,Calm,Calm,-,N/A,,Mostly Cloudy,0,2013-03-27 12:56:00
5:16 AM,-23.8,-27.4,83,30.09,10.0,Calm,Calm,-,N/A,,Overcast,0,2013-03-27 13:16:00
5:36 AM,-23.8,-29.2,76,30.09,10.0,Calm,Calm,-,N/A,,Scattered Clouds,0,2013-03-27 13:36:00
5:56 AM,-25.6,-31.0,76,30.10,10.0,Calm,Calm,-,N/A,,Partly Cloudy,0,2013-03-27 13:56:00
6:16 AM,-25.6,-31.0,76,30.10,10.0,Calm,Calm,-,N/A,,Clear,0,2013-03-27 14:16:00
6:36 AM,-27.4,-32.8,75,30.10,10.0,Calm,Calm,-,N/A,,Clear,0,2013-03-27 14:36:00
6:56 AM,-27.4,-32.8,75,30.10,10.0,Calm,Calm,-,N/A,,Clear,0,2013-03-27 14:56:00
7:16 AM,-27.4,-32.8,75,30.10,10.0,Calm,Calm,-,N/A,,Clear,0,2013-03-27 15:16:00
7:36 AM,-27.4,-34.6,69,30.10,10.0,Calm,Calm,-,N/A,,Clear,0,2013-03-27 15:36:00
7:56 AM,-29.2,-34.6,75,30.10,10.0,Calm,Calm,-,N/A,,Clear,0,2013-03-27 15:56:00
8:16 AM,-29.2,-34.6,75,30.11,10.0,Calm,Calm,-,N/A,,Clear,0,2013-03-27 16:16:00
8:36 AM,-27.4,-31.0,83,30.11,10.0,Calm,Calm,-,N/A,,Clear,0,2013-03-27 16:36:00
8:56 AM,-20.2,-23.8,83,30.12,10.0,Calm,Calm,-,N/A,,Clear,0,2013-03-27 16:56:00
9:16 AM,-16.6,-20.2,84,30.12,10.0,Calm,Calm,-,N/A,,Clear,0,2013-03-27 17:16:00
9:36 AM,-13.0,-20.2,70,30.11,10.0,Calm,Calm,-,N/A,,Clear,0,2013-03-27 17:36:00
9:56 AM,-11.2,-18.4,70,30.11,1.8,Calm,Calm,-,N/A,,Clear,0,2013-03-27 17:56:00
10:16 AM,-7.6,-16.6,65,30.11,10.0,Calm,Calm,-,N/A,,Clear,0,2013-03-27 18:16:00
10:36 AM,-2.2,-14.8,55,30.11,10.0,Calm,Calm,-,N/A,,Clear,0,2013-03-27 18:36:00
10:56 AM,1.4,-13.0,51,30.10,10.0,Calm,Calm,-,N/A,,Clear,0,2013-03-27 18:56:00
11:16 AM,3.2,-11.2,51,30.10,10.0,Calm,Calm,-,N/A,,Clear,0,2013-03-27 19:16:00
11:36 AM,8.6,-9.4,44,30.10,10.0,Calm,Calm,-,N/A,,Clear,0,2013-03-27 19:36:00
11:56 AM,10.4,-7.6,44,30.09,10.0,Calm,Calm,-,N/A,,Clear,0,2013-03-27 19:56:00
12:16 PM,15.8,-5.8,38,30.09,10.0,Calm,Calm,-,N/A,,Clear,0,2013-03-27 20:16:00
12:36 PM,15.8,-5.8,38,30.09,10.0,Calm,Calm,-,N/A,,Clear,0,2013-03-27 20:36:00
12:56 PM,12.2,-4.0,48,30.08,10.0,SW,4.6,-,N/A,,Clear,230,2013-03-27 20:56:00
1:16 PM,15.8,-2.2,45,30.07,10.0,West,6.9,-,N/A,,Clear,260,2013-03-27 21:16:00
1:36 PM,15.8,-0.4,49,30.07,10.0,SSE,9.2,17.3,N/A,,Clear,150,2013-03-27 21:36:00
1:56 PM,15.8,-0.4,49,30.07,10.0,SE,6.9,-,N/A,,Clear,140,2013-03-27 21:56:00
2:16 PM,17.6,-2.2,42,30.07,10.0,SSE,6.9,-,N/A,,Clear,160,2013-03-27 22:16:00
2:36 PM,17.6,-2.2,42,30.07,10.0,SSE,10.4,17.3,N/A,,Clear,150,2013-03-27 22:36:00
2:56 PM,17.6,-2.2,42,30.07,10.0,SSE,10.4,16.1,N/A,,Clear,150,2013-03-27 22:56:00
3:16 PM,17.6,-2.2,42,30.07,10.0,SE,10.4,17.3,N/A,,Clear,140,2013-03-27 23:16:00
3:36 PM,17.6,-2.2,42,30.07,10.0,SSE,8.1,-,N/A,,Clear,150,2013-03-27 23:36:00
3:56 PM,17.6,-2.2,42,30.07,10.0,SE,9.2,16.1,N/A,,Clear,140,2013-03-27 23:56:00
4:16 PM,17.6,-2.2,42,30.07,10.0,SSE,9.2,16.1,N/A,,Clear,150,2013-03-28 00:16:00
4:36 PM,17.6,-2.2,42,30.07,10.0,SSE,8.1,-,N/A,,Clear,150,2013-03-28 00:36:00
4:56 PM,17.6,-2.2,42,30.07,10.0,SE,8.1,-,N/A,,Clear,140,2013-03-28 00:56:00
5:16 PM,17.6,-2.2,42,30.07,10.0,SSE,9.2,18.4,N/A,,Clear,150,2013-03-28 01:16:00
5:36 PM,17.6,-2.2,42,30.07,10.0,SSE,6.9,-,N/A,,Clear,150,2013-03-28 01:36:00
5:56 PM,17.6,-2.2,42,30.07,8.0,SE,9.2,-,N/A,,Clear,140,2013-03-28 01:56:00
6:16 PM,15.8,-2.2,45,30.07,10.0,SE,9.2,-,N/A,,Clear,130,2013-03-28 02:16:00
6:36 PM,15.8,-2.2,45,30.06,10.0,SSE,5.8,-,N/A,,Clear,150,2013-03-28 02:36:00
6:56 PM,15.8,-4.0,41,30.06,10.0,SE,6.9,-,N/A,,Clear,130,2013-03-28 02:56:00
7:16 PM,14.0,-4.0,45,30.06,10.0,SE,4.6,-,N/A,,Clear,140,2013-03-28 03:16:00
7:36 PM,12.2,-2.2,53,30.06,10.0,SSE,3.5,-,N/A,,Clear,150,2013-03-28 03:36:00
7:56 PM,10.4,-4.0,52,30.07,10.0,SSE,3.5,-,N/A,,Clear,150,2013-03-28 03:56:00
8:16 PM,8.6,-5.8,52,30.07,10.0,South,3.5,-,N/A,,Clear,170,2013-03-28 04:16:00
8:36 PM,8.6,-5.8,52,30.07,10.0,Calm,Calm,-,N/A,,Clear,0,2013-03-28 04:36:00
8:56 PM,6.8,-5.8,56,30.07,10.0,Calm,Calm,-,N/A,,Clear,0,2013-03-28 04:56:00
9:16 PM,6.8,-5.8,56,30.07,10.0,SW,5.8,-,N/A,,Clear,220,2013-03-28 05:16:00
9:36 PM,6.8,-5.8,56,30.07,10.0,SW,4.6,-,N/A,,Clear,230,2013-03-28 05:36:00
9:56 PM,1.4,-5.8,72,30.07,10.0,WSW,3.5,-,N/A,,Clear,240,2013-03-28 05:56:00
10:16 PM,-0.4,-7.6,72,30.07,10.0,WSW,3.5,-,N/A,,Clear,240,2013-03-28 06:16:00
10:36 PM,-0.4,-7.6,72,30.07,10.0,SW,4.6,-,N/A,,Clear,230,2013-03-28 06:36:00
10:56 PM,-0.4,-7.6,72,30.07,10.0,SSW,3.5,-,N/A,,Clear,210,2013-03-28 06:56:00
11:16 PM,-0.4,-7.6,72,30.07,10.0,SW,3.5,-,N/A,,Clear,230,2013-03-28 07:16:00
11:36 PM,-0.4,-7.6,72,30.07,10.0,SW,3.5,-,N/A,,Clear,220,2013-03-28 07:36:00
11:56 PM,1.4,-7.6,66,30.07,10.0,SSW,4.6,-,N/A,,Clear,210,2013-03-28 07:56:00